Location: Unspecified
(0.0000°N, 0.0000°E)
Time: 08:20:01
(UTC+00:00)

N. Korean satellite - Pass Details

Date: 21 April 2017
Orbit: 459 x 517 km, 97.2° (Epoch: 20 October)

Event Time Altitude Azimuth Distance (km) Brightness Sun altitude
Rises 18:52:22 0° 176° (S) 2,496 10.0 -13.1°
Reaches altitude 10° 18:54:27 10° 181° (S) 1,612 9.1 -13.6°
Maximum altitude 18:57:50 54° 259° (W) 566 7.2 -14.5°
Drops below altitude 10° 19:01:10 10° 337° (NNW) 1,594 9.7 -15.3°
Sets 19:03:13 0° 342° (NNW) 2,464 10.6 -15.8°
